CINOVEC Weather Reports


time (UTC)temp
C
wind
direction
speed
KPH
gust
KPH
rain 1hr
cm
rain 24hr
cm
rain mn
cm
humidity
%
barometer
mb
20260507071728 7 350 4.8 0.0 0.00 0.00 0.00 99
20260507061728 7 10 8.0 0.0 0.00 0.00 0.00 99
20260507051728 7 350 3.2 0.0 0.00 0.00 0.00 99
20260507041930 7 30 3.2 0.0 0.00 0.00 0.00 99
20260507031728 7 290 4.8 0.0 0.00 0.00 0.00 99
20260507021727 7 100 4.8 0.0 0.00 0.00 0.00 99
20260507011827 7 350 9.7 0.0 0.00 0.00 0.00 99
20260507001729 7 10 9.7 0.0 0.00 0.00 0.00 99
20260506231728 8 320 9.7 0.0 0.00 0.00 0.00 99
20260506221929 10 20 4.8 0.0 0.00 0.00 0.00 99
20260506211728 10 10 11.3 0.0 0.00 0.00 0.00 99
20260506201729 10 10 12.9 0.0 0.00 0.00 0.00 99
20260506191801 11 10 9.7 0.0 0.00 0.00 0.00 93
20260506181801 12 20 4.8 0.0 0.00 0.00 0.00 87
20260506171728 13 0 0.0 0.0 0.00 0.00 0.00 76
20260506161928 13 160 14.5 0.0 0.00 0.00 0.00 67
20260506151729 16 220 8.0 0.0 0.00 0.00 0.00 59
20260506141729 16 220 12.9 0.0 0.00 0.00 0.00 55
20260506131729 15 200 20.9 0.0 0.00 0.00 0.00 54
20260506121728 15 200 22.5 0.0 0.00 0.00 0.00 62
20260506111729 12 230 16.1 27.4 0.00 0.00 0.00 71
20260506101929 13 200 25.7 0.0 0.00 0.00 0.00 71
20260506091729 12 190 25.7 40.2 0.00 0.00 0.00 76
20260506081728 12 190 27.4 0.0 0.00 0.00 0.00 81